KS5S Weather Reports


Display with metric or nautical units.
time (UTC)temp
F
wind
direction
speed
MPH
gust
MPH
rain 1hr
in
rain 24hr
in
rain mn
in
humidity
%
barometer
mb
20260507151028 62 46 4.0 9.0 0.00 0.00 0.00 76 1017.5
20260507150525 62 16 4.0 12.0 0.00 0.00 0.00 77 1017.5
20260507150022 62 9 5.0 11.0 0.00 0.00 0.00 80 1017.6
20260507145516 61 46 8.0 12.0 0.00 0.00 0.00 79 1017.6
20260507145015 61 24 7.0 11.0 0.00 0.00 0.00 80 1017.5
20260507144511 61 40 5.0 10.0 0.00 0.00 0.00 80 1017.7
20260507144009 62 45 4.0 10.0 0.00 0.00 0.00 79 1017.6
20260507143506 61 15 7.0 8.0 0.00 0.00 0.00 79 1017.9
20260507143003 62 28 2.0 9.0 0.00 0.00 0.00 81 1017.8
20260507142458 61 24 8.0 10.0 0.00 0.00 0.00 80 1017.8
20260507141955 60 1 4.0 7.0 0.00 0.00 0.00 82 1017.9
20260507141451 61 1 3.0 5.0 0.00 0.00 0.00 82 1018.3
20260507140948 61 11 5.0 5.0 0.00 0.00 0.00 83 1018.0
20260507140445 60 357 3.0 9.0 0.00 0.00 0.00 83 1018.0
20260507135942 60 34 3.0 7.0 0.00 0.00 0.00 84 1017.8
20260507135439 59 15 4.0 8.0 0.00 0.00 0.00 85 1018.1
20260507134936 58 8 3.0 6.0 0.00 0.00 0.00 86 1017.9
20260507134433 59 23 6.0 8.0 0.00 0.00 0.00 87 1017.9
20260507133929 58 7 5.0 6.0 0.00 0.00 0.00 88 1017.7
20260507133425 57 62 2.0 6.0 0.00 0.00 0.00 90 1018.0
20260507132924 57 5 3.0 6.0 0.00 0.00 0.00 89 1017.9
20260507132419 57 35 2.0 5.0 0.00 0.00 0.00 91 1018.0
20260507131916 57 334 2.0 4.0 0.00 0.00 0.00 92 1018.0
20260507131413 56 26 2.0 2.0 0.00 0.00 0.00 92 1018.0
20260507130910 56 23 0.0 4.0 0.00 0.00 0.00 92 1018.0
20260507130407 56 18 1.0 3.0 0.00 0.00 0.00 93 1017.9
20260507125906 55 20 2.0 5.0 0.00 0.00 0.00 93 1018.0
20260507125403 55 7 3.0 4.0 0.00 0.00 0.00 94 1017.8
20260507124901 55 21 3.0 4.0 0.00 0.00 0.00 94 1017.7
20260507124356 55 38 2.0 4.0 0.00 0.00 0.00 95 1017.9
20260507123855 54 135 0.0 2.0 0.00 0.00 0.00 95 1017.8
20260507123351 54 62 2.0 3.0 0.00 0.00 0.00 96 1017.9
20260507122848 53 76 0.0 2.0 0.00 0.00 0.00 96 1018.3
20260507122343 53 29 2.0 2.0 0.00 0.00 0.00 96 1018.3
20260507121840 53 310 0.0 2.0 0.00 0.00 0.00 96 1018.3
20260507121335 53 352 2.0 2.0 0.00 0.00 0.00 96 1018.4
20260507120832 53 13 1.0 2.0 0.00 0.00 0.00 96 1018.4
20260507120329 53 336 0.0 2.0 0.00 0.00 0.00 96 1018.0
20260507115825 53 343 0.0 2.0 0.00 0.00 0.00 96 1018.3
20260507115321 53 291 0.0 2.0 0.00 0.00 0.00 96 1018.2
20260507114816 53 215 0.0 2.0 0.00 0.00 0.00 95 1018.3
20260507114314 53 183 0.0 2.0 0.00 0.00 0.00 95 1017.9
20260507113811 53 141 0.0 1.0 0.00 0.00 0.00 95 1018.0
20260507113308 53 166 0.0 2.0 0.00 0.00 0.00 95 1018.1
20260507112806 53 73 1.0 1.0 0.00 0.00 0.00 95 1018.0
20260507112306 53 0 0.0 2.0 0.00 0.00 0.00 95 1017.9
20260507111801 53 269 0.0 2.0 0.00 0.00 0.00 95 1017.5
20260507111256 54 0 0.0 0.0 0.00 0.00 0.00 94 1017.5
20260507110753 54 0 0.0 2.0 0.00 0.00 0.00 94 1017.6
20260507110249 54 257 1.0 3.0 0.00 0.00 0.00 94 1017.7
20260507105747 54 311 1.0 3.0 0.00 0.00 0.00 94 1017.5
20260507105242 54 1 1.0 3.0 0.00 0.00 0.00 94 1017.4
20260507104740 54 332 2.0 3.0 0.00 0.00 0.00 94 1017.4
20260507104236 54 0 0.0 2.0 0.00 0.00 0.00 94 1017.1
20260507103732 54 353 0.0 3.0 0.00 0.00 0.00 94 1016.9
20260507103229 54 356 0.0 4.0 0.00 0.00 0.00 93 1016.9
20260507102725 54 315 0.0 3.0 0.00 0.00 0.00 93 1016.8
20260507102222 55 0 1.0 3.0 0.00 0.00 0.00 93 1016.6
20260507101718 54 349 2.0 3.0 0.00 0.00 0.00 93 1016.6
20260507101213 55 17 4.0 5.0 0.00 0.00 0.00 93 1016.5
20260507100711 55 42 2.0 4.0 0.00 0.00 0.00 93 1016.5
20260507100209 55 4 1.0 4.0 0.00 0.00 0.00 92 1016.4
20260507095707 55 6 2.0 4.0 0.00 0.00 0.00 92 1016.2
20260507095203 55 44 0.0 4.0 0.00 0.00 0.00 92 1016.0
20260507094700 55 21 3.0 7.0 0.00 0.00 0.00 91 1015.8
20260507094156 55 0 3.0 8.0 0.00 0.00 0.00 91 1015.7
20260507093654 55 14 4.0 7.0 0.00 0.00 0.00 90 1016.0
20260507093152 55 2 7.0 7.0 0.00 0.00 0.00 90 1015.4
20260507092649 55 34 3.0 6.0 0.00 0.00 0.00 90 1015.8
20260507092146 55 4 3.0 8.0 0.00 0.00 0.00 90 1015.8
20260507091642 55 18 4.0 11.0 0.00 0.00 0.00 89 1015.5
20260507091138 55 21 2.0 8.0 0.00 0.00 0.00 89 1015.5
20260507090634 55 33 5.0 7.0 0.00 0.00 0.00 89 1015.4
20260507090131 56 28 5.0 7.0 0.00 0.00 0.00 89 1015.5
20260507085628 56 31 4.0 7.0 0.00 0.00 0.00 89 1015.3
20260507085125 56 41 6.0 8.0 0.00 0.00 0.00 88 1015.4
20260507084621 56 23 5.0 8.0 0.00 0.00 0.00 88 1015.4
20260507084118 56 37 3.0 8.0 0.00 0.00 0.00 88 1015.5
20260507083615 57 26 5.0 8.0 0.00 0.00 0.00 89 1015.4
20260507083112 57 18 2.0 10.0 0.00 0.00 0.00 89 1015.1
20260507082608 57 29 4.0 9.0 0.00 0.00 0.00 89 1015.2
20260507082104 57 14 4.0 7.0 0.00 0.00 0.00 90 1015.0
20260507081601 57 20 8.0 10.0 0.00 0.00 0.00 90 1014.7
20260507081058 57 22 3.0 8.0 0.00 0.00 0.00 90 1015.0
20260507080554 57 6 3.0 7.0 0.00 0.00 0.00 89 1015.0
20260507080050 58 37 3.0 7.0 0.00 0.00 0.00 88 1015.0
20260507075545 58 26 7.0 7.0 0.00 0.00 0.00 87 1015.5
20260507075042 58 22 5.0 9.0 0.00 0.00 0.00 87 1015.3
20260507074539 58 0 2.0 9.0 0.00 0.00 0.00 88 1015.4
20260507074038 58 3 3.0 9.0 0.00 0.00 0.00 87 1015.3
20260507073533 58 39 7.0 8.0 0.00 0.00 0.00 86 1014.9
20260507073030 59 18 4.0 11.0 0.00 0.00 0.00 86 1015.0
20260507072528 59 30 4.0 9.0 0.00 0.00 0.00 87 1014.9
20260507072025 59 28 3.0 10.0 0.00 0.00 0.00 87 1014.8
20260507071522 59 15 8.0 9.0 0.00 0.00 0.00 87 1014.8
20260507071019 59 36 6.0 10.0 0.00 0.00 0.00 87 1014.5
20260507070516 59 36 4.0 11.0 0.00 0.00 0.00 87 1014.3
20260507070014 59 22 5.0 10.0 0.00 0.00 0.00 88 1014.4
20260507065509 59 3 3.0 13.0 0.00 0.00 0.00 88 1014.2
20260507065006 59 54 6.0 15.0 0.00 0.00 0.00 87 1014.2
20260507064504 59 41 10.0 12.0 0.00 0.00 0.00 88 1014.1
20260507064002 59 30 7.0 14.0 0.00 0.00 0.00 87 1014.2
20260507063459 59 60 6.0 11.0 0.00 0.00 0.00 87 1014.2
20260507062956 60 46 7.0 14.0 0.00 0.00 0.00 87 1014.3
20260507062453 60 45 4.0 9.0 0.00 0.00 0.00 87 1014.3
20260507061950 60 68 8.0 13.0 0.00 0.00 0.00 86 1014.5
20260507061448 60 33 9.0 10.0 0.00 0.00 0.00 87 1014.4
20260507060946 60 59 7.0 11.0 0.00 0.00 0.00 87 1014.3
20260507060443 60 29 4.0 10.0 0.00 0.00 0.00 87 1014.4
20260507055939 60 51 4.0 6.0 0.00 0.00 0.00 87 1014.4
20260507055435 60 32 4.0 9.0 0.00 0.00 0.00 87 1014.4
20260507054932 60 46 9.0 11.0 0.00 0.00 0.00 86 1014.5
20260507054428 60 80 6.0 13.0 0.00 0.00 0.00 86 1014.2
20260507053925 60 71 4.0 9.0 0.00 0.00 0.00 87 1014.4
20260507053422 60 46 8.0 10.0 0.00 0.00 0.00 87 1014.6
20260507052921 60 48 9.0 11.0 0.00 0.00 0.00 87 1014.4
20260507052418 60 61 5.0 13.0 0.00 0.00 0.00 87 1014.6
20260507051909 60 31 7.0 11.0 0.00 0.00 0.00 87 1014.4
20260507051407 60 35 8.0 11.0 0.00 0.00 0.00 87 1014.3
20260507050904 60 44 10.0 11.0 0.00 0.00 0.00 87 1014.1
20260507050400 60 54 9.0 13.0 0.00 0.00 0.00 87 1014.4
20260507045857 60 80 5.0 14.0 0.00 0.03 0.03 88 1014.4
20260507045353 60 79 4.0 15.0 0.00 0.03 0.03 88 1014.4
20260507044851 60 27 7.0 11.0 0.00 0.03 0.03 88 1014.6
20260507044347 60 62 5.0 8.0 0.00 0.03 0.03 88 1014.5
20260507043843 60 67 4.0 11.0 0.00 0.03 0.03 89 1014.5
20260507043340 59 59 5.0 11.0 0.00 0.03 0.03 89 1014.6
20260507042836 59 93 4.0 10.0 0.00 0.03 0.03 90 1014.8
20260507042332 59 79 5.0 11.0 0.00 0.03 0.03 90 1014.6
20260507041829 59 58 5.0 9.0 0.00 0.03 0.03 90 1014.9
20260507041326 59 74 5.0 9.0 0.00 0.03 0.03 91 1014.6
20260507040823 60 52 7.0 9.0 0.00 0.03 0.03 90 1014.6
20260507040319 60 33 3.0 10.0 0.00 0.03 0.03 91 1014.5
20260507035815 60 70 3.0 7.0 0.00 0.03 0.03 91 1014.8
20260507035310 60 58 5.0 9.0 0.00 0.03 0.03 91 1014.8
20260507034809 60 25 5.0 9.0 0.00 0.03 0.03 91 1014.8
20260507034305 60 72 4.0 9.0 0.00 0.03 0.03 91 1014.8
20260507033803 60 44 4.0 7.0 0.00 0.03 0.03 91 1014.8
20260507033301 59 78 4.0 7.0 0.00 0.03 0.03 91 1015.0
20260507032757 59 67 4.0 7.0 0.00 0.03 0.03 91 1014.9
20260507032253 59 18 1.0 7.0 0.00 0.03 0.03 92 1014.7
20260507031750 59 63 4.0 9.0 0.00 0.03 0.03 92 1014.8
20260507031247 59 36 4.0 8.0 0.00 0.03 0.03 92 1014.6
20260507030744 59 46 4.0 8.0 0.00 0.03 0.03 92 1014.3
20260507030241 59 38 4.0 9.0 0.00 0.03 0.03 92 1014.4
20260507025738 59 34 5.0 6.0 0.00 0.03 0.03 92 1014.3
20260507025236 59 42 2.0 8.0 0.00 0.03 0.03 92 1014.3
20260507024734 59 47 3.0 9.0 0.00 0.03 0.03 92 1014.3
20260507024231 59 12 2.0 6.0 0.00 0.03 0.03 92 1014.1
20260507023726 59 21 5.0 7.0 0.00 0.03 0.03 92 1014.0
20260507023223 59 16 3.0 5.0 0.00 0.03 0.03 92 1014.1
20260507022720 59 33 3.0 5.0 0.00 0.03 0.03 91 1013.8
20260507022216 60 10 3.0 7.0 0.00 0.03 0.03 91 1013.7
20260507021713 60 33 3.0 5.0 0.00 0.03 0.03 91 1013.8
20260507021208 60 26 3.0 7.0 0.00 0.03 0.03 91 1013.7
20260507020707 60 21 3.0 6.0 0.00 0.03 0.03 91 1013.5
20260507020202 60 23 3.0 6.0 0.00 0.03 0.03 90 1013.4
20260507015701 60 42 4.0 7.0 0.00 0.03 0.03 90 1013.3
20260507015158 60 35 4.0 6.0 0.00 0.03 0.03 90 1013.0
20260507014654 60 42 4.0 7.0 0.00 0.03 0.03 89 1013.0
20260507014150 60 25 4.0 7.0 0.00 0.03 0.03 89 1012.9
20260507013647 60 27 6.0 6.0 0.00 0.03 0.03 89 1012.6
20260507013144 60 19 4.0 8.0 0.00 0.03 0.03 88 1012.6
20260507012642 60 17 3.0 7.0 0.00 0.03 0.03 88 1012.7
20260507012137 61 16 6.0 6.0 0.00 0.03 0.03 88 1012.4
20260507011636 61 8 3.0 8.0 0.00 0.03 0.03 87 1012.3
20260507011131 61 19 5.0 10.0 0.00 0.03 0.03 87 1012.1
20260507010626 61 32 4.0 7.0 0.00 0.03 0.03 87 1012.0
20260507010122 61 51 6.0 10.0 0.00 0.03 0.03 86 1012.0
20260507005620 61 24 4.0 10.0 0.00 0.03 0.03 86 1011.9
20260507005116 61 12 3.0 10.0 0.00 0.03 0.03 86 1012.0
20260507004613 61 28 5.0 10.0 0.00 0.03 0.03 86 1011.9
20260507004111 61 19 6.0 11.0 0.00 0.03 0.03 87 1011.7
20260507003607 61 31 6.0 11.0 0.00 0.03 0.03 87 1012.0
20260507003101 61 22 2.0 8.0 0.00 0.03 0.03 87 1012.1
20260507002558 61 43 3.0 7.0 0.00 0.03 0.03 87 1012.2
20260507002054 61 6 4.0 7.0 0.00 0.03 0.03 87 1012.2
20260507001551 61 44 4.0 12.0 0.00 0.03 0.03 86 1012.0
20260507001049 61 15 3.0 7.0 0.00 0.03 0.03 87 1012.2
20260507000544 61 46 3.0 7.0 0.00 0.03 0.03 87 1011.9
20260507000040 61 20 3.0 8.0 0.00 0.03 0.03 87 1011.9
20260506235538 61 20 4.0 7.0 0.00 0.03 0.03 87 1011.9
20260506235033 61 11 2.0 6.0 0.00 0.03 0.03 87 1011.9
20260506234531 61 24 4.0 10.0 0.00 0.03 0.03 87 1011.5
20260506234028 60 38 5.0 8.0 0.00 0.03 0.03 88 1011.7
20260506233524 60 8 5.0 10.0 0.00 0.03 0.03 90 1011.2
20260506233016 60 3 4.0 9.0 0.00 0.03 0.03 89 1011.4
20260506232512 60 10 3.0 8.0 0.00 0.03 0.03 89 1011.2
20260506232007 60 9 5.0 9.0 0.14 0.03 0.03 89 1011.2
20260506231505 61 3 11.0 15.0 0.17 0.03 0.03 86 1011.1
20260506231003 62 46 6.0 11.0 0.00 0.00 0.00 82 1011.4
20260506230459 63 32 6.0 11.0 0.00 0.00 0.00 78 1011.1
20260506225956 63 18 3.0 9.0 0.00 0.00 0.00 79 1011.1
20260506225453 63 11 3.0 5.0 0.00 0.00 0.00 78 1011.2
20260506224949 63 17 5.0 7.0 0.00 0.00 0.00 77 1011.1
20260506224446 63 19 5.0 13.0 0.00 0.00 0.00 77 1010.7
20260506223943 63 16 6.0 9.0 0.00 0.00 0.00 77 1010.9
20260506223439 63 7 7.0 11.0 0.00 0.00 0.00 76 1011.2
20260506222936 63 352 5.0 7.0 0.00 0.00 0.00 77 1011.2
20260506222432 63 357 7.0 7.0 0.00 0.00 0.00 76 1011.2
20260506221929 63 343 2.0 6.0 0.00 0.00 0.00 77 1011.1
20260506221426 64 356 2.0 9.0 0.00 0.00 0.00 77 1011.0
20260506220924 64 330 0.0 6.0 0.00 0.00 0.00 78 1011.1
20260506220419 63 2 3.0 9.0 0.00 0.00 0.00 76 1011.0
20260506215916 63 31 2.0 6.0 0.00 0.00 0.00 77 1011.0
20260506215412 63 25 3.0 9.0 0.00 0.00 0.00 77 1011.0
20260506214908 63 355 3.0 5.0 0.00 0.00 0.00 77 1011.1
20260506214406 63 27 3.0 5.0 0.00 0.00 0.00 77 1011.0
20260506213903 63 2 5.0 6.0 0.00 0.00 0.00 78 1011.1
20260506213401 63 6 2.0 5.0 0.00 0.00 0.00 77 1011.1
20260506212858 62 295 2.0 7.0 0.00 0.00 0.00 77 1011.2
20260506212353 62 5 3.0 9.0 0.00 0.00 0.00 77 1011.3
20260506211848 62 0 6.0 10.0 0.00 0.00 0.00 78 1011.1
20260506211345 62 6 2.0 7.0 0.00 0.00 0.00 77 1011.2
20260506210842 62 302 4.0 9.0 0.00 0.00 0.00 77 1011.2
20260506210339 62 349 3.0 11.0 0.00 0.00 0.00 78 1011.1
20260506205836 62 26 4.0 10.0 0.00 0.00 0.00 78 1011.0
20260506205332 62 1 5.0 12.0 0.00 0.00 0.00 77 1011.1
20260506204829 62 345 4.0 10.0 0.00 0.00 0.00 77 1011.3
20260506204326 62 14 4.0 10.0 0.00 0.00 0.00 78 1011.2
20260506203824 62 13 3.0 11.0 0.00 0.00 0.00 78 1011.2
20260506203321 62 19 7.0 8.0 0.00 0.00 0.00 77 1011.4
20260506202817 61 3 4.0 9.0 0.00 0.00 0.00 79 1011.2
20260506202315 62 13 3.0 13.0 0.00 0.00 0.00 79 1011.1
20260506201811 61 334 3.0 13.0 0.00 0.00 0.00 78 1011.7
20260506201309 61 325 3.0 12.0 0.00 0.00 0.00 80 1011.9
20260506200805 61 5 8.0 9.0 0.00 0.00 0.00 80 1011.8
20260506200301 60 22 6.0 13.0 0.00 0.00 0.00 81 1011.5
20260506195758 60 26 5.0 8.0 0.00 0.00 0.00 82 1011.8
20260506195255 59 10 3.0 12.0 0.00 0.00 0.00 82 1012.0
20260506194752 59 7 6.0 14.0 0.00 0.00 0.00 81 1012.0
20260506194248 59 346 1.0 7.0 0.00 0.00 0.00 83 1012.4
20260506193746 59 11 5.0 10.0 0.00 0.00 0.00 83 1012.2
20260506193243 59 347 4.0 8.0 0.00 0.00 0.00 83 1012.1
20260506192739 58 342 4.0 6.0 0.00 0.00 0.00 85 1012.1
20260506192236 58 333 2.0 10.0 0.00 0.00 0.00 84 1012.2
20260506191733 58 346 1.0 7.0 0.00 0.00 0.00 85 1012.1
20260506191229 57 344 4.0 9.0 0.00 0.00 0.00 85 1012.3
20260506190726 58 7 6.0 6.0 0.00 0.00 0.00 86 1012.3
20260506190223 57 359 5.0 9.0 0.00 0.00 0.00 85 1012.4
20260506185720 57 319 2.0 9.0 0.00 0.00 0.00 86 1012.6
20260506185216 57 356 4.0 8.0 0.00 0.00 0.00 86 1012.5
20260506184714 57 17 3.0 6.0 0.00 0.00 0.00 86 1012.7
20260506184211 57 28 2.0 7.0 0.00 0.00 0.00 86 1012.8
20260506183708 57 348 2.0 8.0 0.00 0.00 0.00 86 1012.8
20260506183203 57 343 8.0 11.0 0.00 0.00 0.00 86 1012.7
20260506182701 57 310 3.0 6.0 0.00 0.00 0.00 87 1012.8
20260506182158 57 7 4.0 8.0 0.00 0.00 0.00 88 1013.0
20260506181655 57 10 2.0 7.0 0.00 0.00 0.00 87 1013.0
20260506181152 57 352 2.0 7.0 0.00 0.00 0.00 88 1013.0
20260506180650 57 25 5.0 8.0 0.00 0.00 0.00 88 1012.8
20260506180146 56 23 5.0 13.0 0.00 0.00 0.00 88 1012.6
20260506175642 57 323 4.0 13.0 0.00 0.00 0.00 88 1012.7
20260506175139 57 24 5.0 9.0 0.00 0.00 0.00 87 1012.0
20260506174632 57 4 7.0 17.0 0.00 0.00 0.00 88 1011.1
20260506174128 57 11 7.0 15.0 0.00 0.00 0.00 87 1010.8
20260506173626 57 358 5.0 17.0 0.00 0.00 0.00 88 1010.7
20260506173122 57 15 8.0 17.0 0.00 0.00 0.00 88 1010.5
20260506172620 57 12 5.0 20.0 0.00 0.00 0.00 87 1011.1
20260506172116 57 9 8.0 22.0 0.00 0.00 0.00 88 1011.3
20260506171613 57 359 5.0 13.0 0.00 0.00 0.00 87 1011.2
20260506171110 57 6 8.0 18.0 0.00 0.00 0.00 87 1011.4
20260506170607 57 23 13.0 20.0 0.00 0.00 0.00 87 1011.5
20260506170100 57 10 5.0 14.0 0.00 0.00 0.00 88 1011.9
20260506165558 56 12 5.0 13.0 0.00 0.00 0.00 87 1011.9
20260506165054 57 25 4.0 13.0 0.00 0.00 0.00 88 1011.8
20260506164551 56 11 4.0 9.0 0.00 0.00 0.00 88 1012.5
20260506164048 56 6 4.0 10.0 0.00 0.00 0.00 88 1012.7
20260506163544 57 359 3.0 16.0 0.00 0.00 0.00 87 1012.3
20260506163039 57 3 5.0 11.0 0.00 0.00 0.00 88 1012.5
20260506162536 56 18 8.0 13.0 0.00 0.00 0.00 88 1012.1
20260506162027 56 27 5.0 18.0 0.00 0.00 0.00 87 1011.7
20260506161525 57 19 15.0 16.0 0.00 0.00 0.00 87 1011.8
20260506161021 57 3 8.0 13.0 0.00 0.00 0.00 86 1011.8
20260506160519 57 20 5.0 13.0 0.00 0.00 0.00 86 1011.5
20260506160016 57 35 5.0 23.0 0.00 0.00 0.00 86 1011.1
20260506155515 57 19 4.0 18.0 0.00 0.00 0.00 87 1011.5
20260506153646 55 29 11.0 15.0 0.00 0.00 0.00 90 1011.7
20260506153143 55 3 6.0 9.0 0.00 0.00 0.00 90 1012.0
20260506152640 55 47 6.0 10.0 0.00 0.00 0.00 91 1011.9
20260506152138 54 8 5.0 9.0 0.02 0.00 0.00 91 1012.1
20260506151636 54 37 7.0 11.0 0.02 0.00 0.00 91 1012.3
20260506151133 54 39 4.0 9.0 0.00 0.00 0.00 91 1012.4